TimePDT,TemperatureF,Dew PointF,Humidity,Sea Level PressureIn,VisibilityMPH,Wind Direction,Wind SpeedMPH,Gust SpeedMPH,PrecipitationIn,Events,Conditions,WindDirDegrees,DateUTC
12:53 AM,52.0,39.9,63,29.98,10.0,Variable,3.5,-,0.00,Rain,Light Rain,0,2013-05-24 07:53:00
1:53 AM,48.9,43.0,80,29.97,10.0,Calm,Calm,-,0.00,Rain,Light Rain,0,2013-05-24 08:53:00
2:53 AM,48.9,44.1,83,29.97,10.0,Calm,Calm,-,0.01,Rain,Light Rain,0,2013-05-24 09:53:00
3:53 AM,48.0,45.0,89,29.96,6.0,WSW,4.6,-,0.04,Rain,Light Rain,250,2013-05-24 10:53:00
4:53 AM,46.9,43.0,86,29.96,6.0,NW,3.5,-,0.06,Rain,Light Rain,310,2013-05-24 11:53:00
5:53 AM,46.0,43.0,89,29.97,6.0,Calm,Calm,-,0.13,Rain,Rain,0,2013-05-24 12:53:00
6:53 AM,46.0,44.1,93,29.99,5.0,Calm,Calm,-,0.16,Rain,Rain,0,2013-05-24 13:53:00
7:53 AM,46.9,42.1,83,30.00,5.0,Calm,Calm,-,0.15,Rain,Rain,0,2013-05-24 14:53:00
8:53 AM,46.9,41.0,80,30.01,10.0,Calm,Calm,-,0.10,Rain,Light Rain,0,2013-05-24 15:53:00
9:53 AM,48.0,42.1,80,30.01,10.0,Calm,Calm,-,0.03,Rain,Light Rain,0,2013-05-24 16:53:00
10:16 AM,48.2,42.8,82,30.00,10.0,NNE,3.5,-,0.00,Rain,Light Rain,20,2013-05-24 17:16:00
10:42 AM,48.2,42.8,82,30.00,10.0,NW,3.5,-,0.02,Rain,Light Rain,320,2013-05-24 17:42:00
10:53 AM,48.9,43.0,80,30.00,10.0,Calm,Calm,-,0.02,Rain,Light Rain,0,2013-05-24 17:53:00
11:14 AM,50.0,42.8,76,30.00,10.0,Calm,Calm,-,0.00,Rain,Light Rain,0,2013-05-24 18:14:00
11:39 AM,51.8,42.8,71,30.00,10.0,Calm,Calm,-,0.00,,Overcast,0,2013-05-24 18:39:00
11:53 AM,52.0,44.1,74,30.00,10.0,Calm,Calm,-,0.00,,Overcast,0,2013-05-24 18:53:00
12:53 PM,57.0,44.1,62,29.99,10.0,West,8.1,-,N/A,,Overcast,280,2013-05-24 19:53:00
1:53 PM,59.0,42.1,53,29.99,10.0,NNW,6.9,-,N/A,,Overcast,340,2013-05-24 20:53:00
2:53 PM,61.0,42.1,50,29.99,10.0,NNW,8.1,-,N/A,,Mostly Cloudy,330,2013-05-24 21:53:00
3:53 PM,63.0,39.9,43,29.99,10.0,Variable,6.9,-,N/A,,Mostly Cloudy,0,2013-05-24 22:53:00
4:53 PM,64.9,37.9,37,29.98,10.0,Variable,3.5,-,N/A,,Mostly Cloudy,0,2013-05-24 23:53:00
5:53 PM,62.1,39.0,43,29.98,10.0,SW,3.5,-,N/A,,Scattered Clouds,220,2013-05-25 00:53:00
6:53 PM,61.0,41.0,48,29.99,10.0,SW,5.8,-,N/A,,Scattered Clouds,230,2013-05-25 01:53:00
7:53 PM,60.1,46.0,60,29.99,10.0,West,3.5,-,N/A,,Mostly Cloudy,280,2013-05-25 02:53:00
8:53 PM,57.0,46.0,67,30.00,10.0,West,3.5,-,N/A,,Overcast,270,2013-05-25 03:53:00
9:53 PM,55.9,39.9,55,30.01,10.0,NNW,6.9,-,N/A,,Partly Cloudy,330,2013-05-25 04:53:00
10:53 PM,52.0,39.9,63,30.01,10.0,NNW,5.8,-,N/A,,Clear,330,2013-05-25 05:53:00
11:53 PM,48.0,41.0,77,30.00,10.0,West,4.6,-,N/A,,Clear,270,2013-05-25 06:53:00